COSMOS 789 DEB

Satellite information

Favourite Embed

Satellite Type and Status

DEBRISIN ORBIT

Key statistics

Satellite COSMOS 789 DEB at a glance.

Uptime

18230

Days in orbit

Revolutions

≈ 13.8

Per day

Orbit

LEO

Low Earth Orbit

Inclination

83.0

Latest

Satellite identification and parameters

Extended collection of information and parameters for COSMOS 789 DEB.

Object identification

Identified? True

Debris? True

Object name: COSMOS 789 DEB

International designator: 1976-005C

Object number (NORAD): 36299

Object ID (CCSDS): 36299

Country: COMMONWEALTH OF INDEPENDENT STATES (CIS)

Current information (Y/N): Y

RCS size: SMALL

Orbital parameters

Period: 104.351 minutes

Inclination: 82.9716 deg

SMA: 7342.179 km

Apoapsis: 984.134 km

Periapsis: 943.953 km

RAAN: 317.579 deg

Eccentricy: 0.00273631

Argument of periapsis: 285.385 deg

Mean anomaly: 103.8142 deg

Mean motion: 13.79956257 rev/day

Mean motion (dot): 0.00000813 rev/day2

B* drag term: 0.00076793023 1/REarth

Two-line elements (TLE)

Creation date: Dec. 18, 2025, 2:19 a.m.

Reference frame: TEME

Reference center: EARTH

Epoch: Dec. 17, 2025, 9:17 p.m. UTC

TLE line 0: 0 COSMOS 789 DEB

TLE line 1: 1 36299U 76005C 25351.88690991 .00000813 00000-0 76793-3 0 9990

TLE line 2: 2 36299 82.9716 317.5790 0027363 285.3850 103.8142 13.79956257826917

Live tracking on map

Real-time ground track for satellite COSMOS 789 DEB.

In-orbit conjunctions

A list of the most updated potential collisions computed for object COSMOS 789 DEB.

Target Orbit TCA Probability of collision Miss distance Type
COSMOS 1275 DEB LEO 2025-09-04 06:16:12 0.0004926413 119.0 (m) DEBRIS
COSMOS 886 DEB * LEO 2024-07-02 12:51:16 0.0001072485 105.0 (m) DEBRIS

Associated space launch

Navigation satellite providing location information for the Tsiklon-B navigation system

COSMOS 789 DEB was lifted into orbit during the mission ‘Kosmos-3M | Parus 5’, on board a Kosmos-3M space rocket.

The launch took place on Jan. 20, 1976, 5:07 p.m. from 132/1 (132L).

For more information about the launch, click the button.

Launch to space Kosmos-3M | Parus 5
Kosmos-3M | Parus 5

Agency: N/A

Status: Launch Successful

Launch date: Jan. 20, 1976, 5:07 p.m. UTC

Rocket: Kosmos-3M

Launch pad: 132/1 (132L)

Location: Plesetsk Cosmodrome, Russian Federation

...

Latest news about this satellite

There are no fresh news available about this satellite. Check back as we update our databases every day.


Newsletter sign-up

Weekly statistics, charts and insights to help you stay on top of the space industry.